RESCUE1 BGSF-BGSF

Flight info

Callsign RESCUE1
Flight time 0h 40m
Altitude 3500
Route VFR
Aircraft EC25/M-VGD/C

Departure

Time 2026-04-24 07:14
Airport Kangerlussuaq International Airport (BGSF)

Arrival

Time 2026-04-24 07:54
Airport Kangerlussuaq International Airport (BGSF)
Time Latitude Longitude Altitude Speed Heading
2026-04-24 06:53 67.01216 -50.69594 154 ft 0 kts 163°
2026-04-24 06:58 67.01213 -50.69594 154 ft 1 kts 178°
2026-04-24 06:58 67.01204 -50.69619 154 ft 0 kts 237°
2026-04-24 07:08 67.01203 -50.69625 154 ft 1 kts 241°
2026-04-24 07:08 67.01202 -50.69646 154 ft 1 kts 263°
2026-04-24 07:08 67.01203 -50.69662 154 ft 1 kts 278°
2026-04-24 07:08 67.01203 -50.69766 155 ft 10 kts 264°
2026-04-24 07:09 67.01183 -50.70019 155 ft 17 kts 256°
2026-04-24 07:09 67.01190 -50.70277 156 ft 15 kts 345°
2026-04-24 07:09 67.01247 -50.70317 158 ft 6 kts 342°
2026-04-24 07:09 67.01285 -50.70339 159 ft 5 kts 349°
2026-04-24 07:10 67.01296 -50.70348 159 ft 0 kts 342°
2026-04-24 07:10 67.01300 -50.70352 159 ft 4 kts 338°
2026-04-24 07:10 67.01344 -50.70396 159 ft 7 kts 338°
2026-04-24 07:10 67.01394 -50.70363 160 ft 11 kts 60°
2026-04-24 07:11 67.01410 -50.70289 159 ft 0 kts 60°
2026-04-24 07:12 67.01413 -50.70277 160 ft 3 kts 59°
2026-04-24 07:12 67.01439 -50.70158 176 ft 14 kts 50°
2026-04-24 07:12 67.01523 -50.69730 253 ft 44 kts 51°
2026-04-24 07:13 67.01703 -50.68844 380 ft 68 kts 47°
2026-04-24 07:13 67.01955 -50.67683 501 ft 81 kts 54°
2026-04-24 07:13 67.02163 -50.66275 613 ft 87 kts 63°
2026-04-24 07:13 67.02296 -50.64724 713 ft 90 kts 70°
2026-04-24 07:14 67.02341 -50.63115 836 ft 91 kts 77°
2026-04-24 07:14 67.02309 -50.61511 1003 ft 89 kts 81°
2026-04-24 07:14 67.02315 -50.59973 1179 ft 84 kts 71°
2026-04-24 07:14 67.02440 -50.58540 1360 ft 83 kts 60°
2026-04-24 07:15 67.02581 -50.57026 1493 ft 91 kts 83°
2026-04-24 07:15 67.02546 -50.55418 1692 ft 90 kts 89°
2026-04-24 07:15 67.02483 -50.53899 1946 ft 82 kts 77°
2026-04-24 07:15 67.02530 -50.52500 2197 ft 77 kts 67°
2026-04-24 07:16 67.02659 -50.51112 2385 ft 86 kts 65°
2026-04-24 07:16 67.02859 -50.49510 2409 ft 104 kts 64°
2026-04-24 07:16 67.03047 -50.47674 2530 ft 104 kts 75°
2026-04-24 07:16 67.03133 -50.45897 2673 ft 98 kts 77°
2026-04-24 07:17 67.03214 -50.44130 2718 ft 102 kts 77°
2026-04-24 07:17 67.03295 -50.42318 2751 ft 103 kts 77°
2026-04-24 07:17 67.03377 -50.40454 2767 ft 108 kts 77°
2026-04-24 07:17 67.03459 -50.38520 2773 ft 110 kts 78°
2026-04-24 07:18 67.03538 -50.36549 2801 ft 112 kts 78°
2026-04-24 07:18 67.03612 -50.34564 2832 ft 112 kts 79°
2026-04-24 07:18 67.03657 -50.33257 2856 ft 111 kts 79°
2026-04-24 07:18 67.03740 -50.30627 2902 ft 110 kts 79°
2026-04-24 07:19 67.03794 -50.28699 2943 ft 109 kts 80°
2026-04-24 07:19 67.03846 -50.26743 2944 ft 114 kts 80°
2026-04-24 07:19 67.03893 -50.24743 3022 ft 108 kts 81°
2026-04-24 07:19 67.03923 -50.22859 3061 ft 104 kts 83°
2026-04-24 07:20 67.03930 -50.21035 3081 ft 101 kts 84°
2026-04-24 07:20 67.03919 -50.19253 3107 ft 99 kts 85°
2026-04-24 07:20 67.03912 -50.18068 3130 ft 98 kts 84°
2026-04-24 07:20 67.03908 -50.16340 3159 ft 96 kts 83°
2026-04-24 07:21 67.03912 -50.14657 3190 ft 95 kts 83°
2026-04-24 07:21 67.03923 -50.12964 3232 ft 95 kts 82°
2026-04-24 07:21 67.03945 -50.11270 3251 ft 97 kts 81°
2026-04-24 07:21 67.03992 -50.09527 3216 ft 100 kts 80°
2026-04-24 07:22 67.04043 -50.07689 3153 ft 106 kts 81°
2026-04-24 07:22 67.04094 -50.05773 3085 ft 109 kts 81°
2026-04-24 07:22 67.04145 -50.03812 2997 ft 111 kts 81°
2026-04-24 07:22 67.04195 -50.01821 2935 ft 112 kts 81°
2026-04-24 07:23 67.04251 -49.99821 2871 ft 113 kts 81°
2026-04-24 07:23 67.04313 -49.97820 2817 ft 113 kts 80°
2026-04-24 07:23 67.04382 -49.95816 2753 ft 113 kts 79°
2026-04-24 07:23 67.04457 -49.93818 2696 ft 113 kts 79°
2026-04-24 07:24 67.04539 -49.91824 2640 ft 112 kts 78°
2026-04-24 07:24 67.04624 -49.89857 2604 ft 110 kts 78°
2026-04-24 07:24 67.04714 -49.87914 2579 ft 109 kts 77°
2026-04-24 07:24 67.04808 -49.85993 2553 ft 108 kts 77°
2026-04-24 07:25 67.04915 -49.84121 2689 ft 102 kts 72°
2026-04-24 07:25 67.05062 -49.82410 2943 ft 95 kts 67°
2026-04-24 07:25 67.05241 -49.80805 3129 ft 95 kts 68°
2026-04-24 07:25 67.05420 -49.79146 3194 ft 98 kts 68°
2026-04-24 07:26 67.05599 -49.77437 3262 ft 100 kts 69°
2026-04-24 07:26 67.05776 -49.75700 3327 ft 101 kts 69°
2026-04-24 07:26 67.05929 -49.73917 3363 ft 104 kts 74°
2026-04-24 07:26 67.05984 -49.72016 3345 ft 109 kts 85°
2026-04-24 07:27 67.05939 -49.70091 3364 ft 109 kts 89°
2026-04-24 07:27 67.05864 -49.68163 3412 ft 108 kts 90°
2026-04-24 07:27 67.05776 -49.66260 3456 ft 107 kts 91°
2026-04-24 07:27 67.05674 -49.64384 3516 ft 106 kts 92°
2026-04-24 07:28 67.05559 -49.62670 3552 ft 87 kts 95°
2026-04-24 07:28 67.05496 -49.61310 3564 ft 68 kts 83°
2026-04-24 07:28 67.05495 -49.60206 3528 ft 58 kts 88°
2026-04-24 07:28 67.05314 -49.59328 3452 ft 56 kts 112°
2026-04-24 07:29 67.05002 -49.58853 3407 ft 45 kts 145°
2026-04-24 07:29 67.04762 -49.58641 3327 ft 30 kts 181°
2026-04-24 07:29 67.04651 -49.59102 3229 ft 39 kts 264°
2026-04-24 07:29 67.04663 -49.59757 3218 ft 28 kts 277°
2026-04-24 07:30 67.04755 -49.60078 3152 ft 25 kts 328°
2026-04-24 07:30 67.04895 -49.60115 3123 ft 9 kts 338°
2026-04-24 07:30 67.04963 -49.60185 3125 ft 10 kts 22°
2026-04-24 07:30 67.04990 -49.60103 3077 ft 8 kts 71°
2026-04-24 07:31 67.04995 -49.60031 3043 ft 3 kts 115°
2026-04-24 07:31 67.04991 -49.59999 3036 ft 1 kts 94°
2026-04-24 07:31 67.04991 -49.59997 3035 ft 0 kts 94°
2026-04-24 07:37 67.04991 -49.59994 3036 ft 1 kts 93°
2026-04-24 07:38 67.04988 -49.60044 3066 ft 5 kts 14°
2026-04-24 07:38 67.05139 -49.60307 3197 ft 42 kts 286°
2026-04-24 07:38 67.05193 -49.61258 3356 ft 67 kts 255°
2026-04-24 07:38 67.05098 -49.62635 3459 ft 89 kts 247°
2026-04-24 07:39 67.04910 -49.64326 3507 ft 107 kts 244°
2026-04-24 07:39 67.04639 -49.66200 3488 ft 115 kts 241°
2026-04-24 07:39 67.04302 -49.68066 3416 ft 116 kts 237°
2026-04-24 07:39 67.03901 -49.69885 3335 ft 118 kts 232°
2026-04-24 07:40 67.03444 -49.71624 3253 ft 118 kts 228°
2026-04-24 07:40 67.02939 -49.73293 3170 ft 120 kts 228°
2026-04-24 07:40 67.02525 -49.75202 3007 ft 125 kts 243°
2026-04-24 07:40 67.02280 -49.77298 2973 ft 119 kts 251°
2026-04-24 07:41 67.02090 -49.79296 3000 ft 112 kts 251°
2026-04-24 07:41 67.01930 -49.81262 2948 ft 114 kts 254°
2026-04-24 07:41 67.01806 -49.83305 2850 ft 118 kts 258°
2026-04-24 07:41 67.01718 -49.85405 2766 ft 120 kts 261°
2026-04-24 07:42 67.01652 -49.87532 2690 ft 120 kts 261°
2026-04-24 07:42 67.01570 -49.89664 2602 ft 122 kts 261°
2026-04-24 07:42 67.01524 -49.91846 2478 ft 124 kts 265°
2026-04-24 07:42 67.01547 -49.94032 2396 ft 121 kts 269°
2026-04-24 07:43 67.01578 -49.96165 2326 ft 120 kts 267°
2026-04-24 07:43 67.01556 -49.98315 2190 ft 122 kts 263°
2026-04-24 07:43 67.01494 -50.00485 2077 ft 122 kts 262°
2026-04-24 07:43 67.01403 -50.02609 1993 ft 119 kts 259°
2026-04-24 07:44 67.01289 -50.04661 1963 ft 114 kts 257°
2026-04-24 07:44 67.01153 -50.06630 1954 ft 111 kts 255°
2026-04-24 07:44 67.01014 -50.08547 1947 ft 109 kts 257°
2026-04-24 07:44 67.00914 -50.10477 1892 ft 111 kts 260°
2026-04-24 07:45 67.00865 -50.12478 1823 ft 114 kts 264°
2026-04-24 07:45 67.00854 -50.14512 1772 ft 114 kts 267°
2026-04-24 07:45 67.00860 -50.16545 1758 ft 114 kts 268°
2026-04-24 07:45 67.00880 -50.18536 1765 ft 113 kts 269°
2026-04-24 07:46 67.00898 -50.20501 1781 ft 108 kts 268°
2026-04-24 07:46 67.00909 -50.22377 1812 ft 104 kts 267°
2026-04-24 07:46 67.00911 -50.24190 1831 ft 101 kts 266°
2026-04-24 07:46 67.00898 -50.25965 1865 ft 100 kts 264°
2026-04-24 07:47 67.00859 -50.27731 1909 ft 99 kts 262°
2026-04-24 07:47 67.00795 -50.29478 1958 ft 98 kts 259°
2026-04-24 07:47 67.00712 -50.31138 2096 ft 91 kts 256°
2026-04-24 07:47 67.00610 -50.32692 2232 ft 87 kts 253°
2026-04-24 07:48 67.00486 -50.34173 2378 ft 85 kts 249°
2026-04-24 07:48 67.00332 -50.35737 2353 ft 96 kts 249°
2026-04-24 07:48 67.00151 -50.37471 2302 ft 104 kts 249°
2026-04-24 07:48 66.99956 -50.39309 2245 ft 109 kts 250°
2026-04-24 07:49 66.99754 -50.41205 2208 ft 111 kts 250°
2026-04-24 07:49 66.99555 -50.43098 2199 ft 110 kts 250°
2026-04-24 07:49 66.99358 -50.44985 2193 ft 110 kts 251°
2026-04-24 07:49 66.99162 -50.46868 2190 ft 109 kts 251°
2026-04-24 07:50 66.98968 -50.48745 2182 ft 109 kts 251°
2026-04-24 07:50 66.98777 -50.50618 2181 ft 109 kts 253°
2026-04-24 07:50 66.98653 -50.52567 2118 ft 114 kts 261°
2026-04-24 07:50 66.98622 -50.54609 2069 ft 116 kts 268°
2026-04-24 07:51 66.98666 -50.56687 1999 ft 118 kts 273°
2026-04-24 07:51 66.98779 -50.58759 1931 ft 118 kts 278°
2026-04-24 07:51 66.98970 -50.60786 1885 ft 117 kts 286°
2026-04-24 07:51 66.99265 -50.62714 1859 ft 116 kts 291°
2026-04-24 07:52 66.99581 -50.64612 1789 ft 115 kts 290°
2026-04-24 07:52 66.99888 -50.66554 1504 ft 122 kts 290°
2026-04-24 07:52 67.00117 -50.68680 1178 ft 130 kts 280°
2026-04-24 07:52 67.00045 -50.70946 1039 ft 126 kts 243°
2026-04-24 07:53 66.99560 -50.72835 846 ft 129 kts 237°
2026-04-24 07:53 66.99332 -50.74969 651 ft 126 kts 276°
2026-04-24 07:53 66.99887 -50.76461 529 ft 122 kts 349°
2026-04-24 07:53 67.00486 -50.75319 560 ft 107 kts 63°
2026-04-24 07:54 67.00722 -50.73581 379 ft 100 kts 64°
2026-04-24 07:54 67.01036 -50.72046 208 ft 92 kts 59°
2026-04-24 07:54 67.01287 -50.70861 206 ft 57 kts 58°
2026-04-24 07:54 67.01372 -50.70428 183 ft 1 kts 129°
2026-04-24 07:55 67.01362 -50.70400 163 ft 1 kts 141°
2026-04-24 07:55 67.01357 -50.70390 159 ft 2 kts 150°
2026-04-24 07:55 67.01327 -50.70373 159 ft 7 kts 168°
2026-04-24 07:55 67.01264 -50.70324 158 ft 12 kts 163°
2026-04-24 07:56 67.01185 -50.70201 156 ft 16 kts 101°
2026-04-24 07:56 67.01190 -50.69894 155 ft 16 kts 81°
2026-04-24 07:56 67.01215 -50.69607 154 ft 14 kts 50°
2026-04-24 07:56 67.01226 -50.69576 154 ft 0 kts 49°